Theta_e
317 317 317 316 315 314 314 314 314 314 314 312 310 310 308 307 303 298 297 297 296 295 297 293 294 295 294 293 294 293 292 292 294 295 296 297 297 298 300 302 304 306 306 306 306 306 307 306 306 306 307 306 306 306 306 306 306 306 305 304 303 302 301 300 300 300 299 299 300 300 300 300 300 300
315 315 315 315 313 311 311 312 313 314 314 313 311 311 312 311 307 304 301 301 300 296 297 296 291 293 292 293 293 292 291 291 292 293 293 294 294 295 297 299 300 301 303 304 305 305 305 305 305 306 306 306 306 306 306 306 305 304 303 302 301 300 299 298 298 298 298 298 298 298 299 299 299 299
312 311 312 312 311 310 310 310 311 312 314 312 312 312 311 311 311 307 305 299 298 298 293 294 293 291 291 292 291 292 291 291 291 292 292 292 291 293 294 296 297 298 298 300 302 303 304 304 304 304 305 305 305 305 304 304 303 303 302 300 299 297 297 297 297 297 297 297 297 297 297 298 298 298
309 310 310 308 308 307 308 308 310 310 309 311 312 311 310 310 310 308 306 303 294 296 294 292 291 291 290 290 290 290 290 290 290 291 290 290 291 293 293 293 294 295 296 296 297 298 300 301 302 302 303 302 302 302 302 302 301 301 299 298 296 296 296 296 296 296 296 296 296 296 296 296 297 297
306 308 308 309 307 307 306 305 305 306 306 309 310 310 310 309 309 307 303 296 290 289 291 290 290 290 290 289 290 289 289 289 289 290 291 291 292 292 293 292 292 293 294 294 294 294 294 295 296 297 297 298 297 298 298 298 297 297 296 296 295 294 294 294 294 295 295 295 294 294 294 295 296 296
304 305 306 306 305 305 305 304 305 304 303 305 307 307 308 307 307 306 300 294 290 288 288 288 289 288 290 288 290 289 289 288 289 289 290 290 291 291 292 291 291 291 292 292 293 293 293 293 293 293 293 294 294 294 294 294 294 294 295 294 294 293 292 293 293 293 293 293 293 294 294 294 294 295
302 302 302 301 301 300 301 301 302 302 303 305 305 307 307 307 306 304 301 295 291 287 286 288 286 287 288 287 287 288 289 289 289 288 288 288 289 290 290 290 289 289 290 291 291 292 291 291 292 291 291 291 291 291 291 292 293 293 293 293 293 292 291 292 292 292 292 292 292 292 292 293 293 294
301 301 300 299 299 299 299 299 299 301 301 303 303 304 304 305 304 302 300 299 294 289 285 286 285 287 286 286 287 288 288 287 288 288 288 289 288 289 289 288 287 287 288 289 289 290 290 290 290 290 290 290 290 290 290 290 291 292 292 292 292 291 291 291 291 291 291 291 291 291 291 291 292 293
300 300 299 299 298 298 298 297 297 297 298 299 299 299 299 300 298 297 298 295 293 288 285 285 286 286 286 286 286 287 285 286 286 287 287 287 287 287 288 287 287 285 286 287 288 288 288 288 288 288 288 288 288 288 288 289 289 290 291 291 291 290 290 290 290 291 290 290 290 290 290 290 290 291
298 298 297 297 297 297 297 297 296 295 295 296 296 296 295 294 294 294 293 292 291 289 287 285 284 285 283 284 285 287 286 285 284 284 285 286 287 286 285 286 286 286 286 286 287 287 287 287 287 287 287 286 286 286 287 287 288 290 290 290 290 290 289 289 290 290 290 290 290 289 289 289 289 290
296 296 296 296 296 296 297 296 294 294 293 294 294 294 292 292 291 290 290 290 289 287 285 284 284 283 284 284 283 285 287 287 285 284 284 284 286 286 285 284 286 286 287 286 284 285 285 285 285 285 285 285 285 285 285 286 287 289 290 290 289 289 289 289 289 289 289 289 289 289 289 289 289 289
294 294 294 295 295 295 295 295 294 294 293 293 293 292 291 291 290 288 288 288 288 286 285 283 283 283 284 285 285 286 285 284 285 286 285 283 284 284 284 284 283 285 286 286 287 287 288 288 286 286 285 285 284 284 285 285 287 288 289 288 288 288 288 288 288 288 288 288 288 288 288 288 288 288
293 292 292 292 293 292 289 288 289 290 290 293 291 291 291 290 289 288 288 288 287 285 284 283 284 284 283 284 283 283 283 283 283 285 285 285 285 284 284 283 284 283 283 285 286 286 287 286 286 286 286 286 285 285 284 286 286 287 289 287 287 287 287 287 287 287 287 287 287 287 287 287 287 287
291 291 291 289 286 286 287 287 288 288 288 288 290 290 290 289 288 288 287 287 286 286 284 284 283 282 282 283 283 283 285 285 284 283 284 282 283 283 282 282 282 282 281 282 284 285 287 285 285 285 284 285 285 285 286 285 285 287 288 286 285 286 286 286 286 286 286 286 286 286 286 286 287 287
290 290 289 289 287 287 286 288 287 288 288 288 288 288 288 288 289 288 287 286 286 285 284 284 283 283 283 283 284 284 283 284 283 283 283 282 282 281 281 280 282 282 280 280 283 283 286 285 282 283 284 284 284 284 284 284 285 287 286 285 284 285 285 285 285 285 285 285 285 285 285 285 286 286
288 288 288 288 288 288 288 288 287 287 287 288 287 287 288 288 288 289 289 287 285 285 283 283 283 283 282 282 282 282 282 281 282 282 282 282 282 281 281 282 279 280 281 279 282 282 285 283 282 282 283 283 283 283 282 283 284 286 284 283 283 283 284 284 284 284 284 284 284 284 284 285 285 285
288 287 287 287 287 287 285 287 287 286 285 285 285 286 286 286 287 287 287 287 287 287 285 283 282 282 282 281 282 283 282 283 281 281 280 280 281 281 280 279 277 278 280 279 281 280 282 281 280 281 283 282 282 282 282 282 284 285 283 282 282 282 282 283 283 283 283 283 283 283 283 284 284 285
287 287 287 286 286 286 286 286 286 285 284 284 284 283 283 283 284 284 284 284 284 285 285 284 282 283 283 281 281 281 283 282 282 282 281 281 281 281 280 279 278 279 280 277 279 280 281 281 280 280 281 282 281 282 282 282 283 283 281 281 281 281 281 281 282 282 282 282 282 282 283 283 283 283
287 288 287 287 286 285 284 284 284 283 283 283 282 282 281 282 282 282 282 282 282 282 282 281 280 280 280 279 279 280 282 283 282 283 282 282 282 281 280 280 279 278 279 278 279 277 280 280 279 279 279 279 279 281 282 281 282 281 281 280 280 280 280 280 281 281 281 281 281 281 282 282 282 282
285 286 287 287 285 284 283 283 283 283 283 282 282 281 281 280 281 281 282 283 282 281 281 281 280 280 280 280 279 280 280 280 280 280 280 281 281 280 280 278 279 277 278 278 276 276 277 279 277 276 278 278 278 280 281 283 281 280 280 279 279 279 279 280 280 280 280 280 280 280 281 281 281 281
283 284 285 285 284 283 282 283 284 284 283 282 281 280 280 280 280 280 281 283 283 283 283 283 282 282 282 282 281 281 281 280 281 281 280 279 280 279 278 278 277 277 277 276 276 275 274 278 276 274 276 276 276 278 280 282 282 280 279 279 278 279 279 279 279 279 279 279 279 280 280 280 280 279
283 283 283 284 283 283 282 284 284 284 283 282 281 280 279 277 276 276 277 277 278 280 280 280 280 279 279 279 279 279 279 278 279 280 278 279 280 279 279 277 277 276 276 274 276 274 274 276 275 273 274 276 277 278 279 281 280 279 278 278 278 278 278 278 278 278 278 279 279 279 279 279 279 277
283 283 283 283 283 283 283 284 284 283 282 281 280 279 278 276 275 274 275 274 273 273 273 273 274 274 274 274 273 274 276 276 275 276 276 278 279 278 277 276 276 275 275 274 275 272 273 274 273 273 270 272 275 279 279 279 278 277 276 276 276 277 276 277 277 277 278 278 278 278 278 278 278 276
282 282 283 283 283 284 284 284 284 283 282 281 280 279 277 275 274 275 274 274 274 273 272 272 272 273 273 273 272 272 272 273 273 274 274 275 277 276 276 276 276 275 273 273 274 271 271 273 270 273 271 269 270 276 276 275 276 276 276 275 274 275 275 275 276 277 277 277 277 277 277 277 277 275
281 281 282 283 283 284 284 284 283 282 282 281 279 278 277 276 276 276 273 273 273 272 272 272 272 273 273 273 272 272 272 272 272 272 273 273 274 275 274 274 273 272 272 272 272 271 268 270 268 270 269 270 270 270 272 273 274 275 276 275 273 273 273 273 274 274 275 276 276 276 275 276 277 275
282 282 282 282 283 284 283 283 283 282 282 281 279 278 279 279 277 273 273 273 272 271 271 271 271 272 272 272 271 271 271 270 270 270 271 271 272 272 273 273 272 272 271 271 271 270 269 267 268 267 267 268 268 270 268 270 273 276 275 274 273 272 273 273 272 273 273 273 272 273 274 276 276 276
282 283 282 283 283 283 283 282 282 282 281 279 279 281 280 278 276 274 272 271 270 270 270 270 270 270 270 270 270 270 270 269 269 269 270 270 271 271 271 270 271 270 270 270 270 270 269 266 268 267 266 267 266 267 268 269 270 273 272 273 272 272 273 272 271 272 272 271 271 273 273 274 274 274
282 282 282 283 283 283 282 282 282 281 280 280 281 280 279 276 274 272 271 270 270 270 270 269 269 269 270 270 269 269 269 268 268 268 269 269 270 270 269 269 268 269 268 269 269 269 268 266 266 267 267 266 264 265 265 269 270 269 269 270 270 272 272 271 271 271 271 271 270 270 269 269 269 270
282 282 283 283 283 282 282 282 281 280 280 281 280 278 275 272 271 271 270 269 269 268 267 267 267 267 267 268 268 269 268 268 268 267 267 268 268 268 268 267 267 266 267 267 267 267 267 267 266 266 266 265 265 265 266 265 266 267 268 266 267 270 270 272 271 269 270 269 269 268 267 268 268 269
282 282 283 283 282 282 281 279 278 278 278 278 277 274 272 272 271 271 270 269 269 267 267 266 266 267 267 266 267 267 267 267 266 266 266 267 266 267 267 266 266 265 265 265 265 266 266 265 265 265 264 264 265 264 265 265 264 266 267 267 267 268 271 270 269 269 268 267 267 266 267 268 268 268
277 276 276 275 275 273 273 272 273 273 273 272 271 271 271 271 271 271 271 270 269 267 266 266 266 266 266 266 265 265 265 264 265 265 264 265 265 266 266 266 266 266 265 264 264 264 264 264 264 264 262 263 264 264 265 265 263 264 266 267 267 264 267 268 268 268 268 266 266 266 266 267 268 268
270 269 269 269 268 268 268 268 268 268 269 269 270 270 270 270 269 268 268 268 268 268 267 266 265 264 264 264 264 264 263 263 263 264 263 264 264 265 265 266 265 265 264 265 264 264 263 263 263 263 263 263 262 263 264 264 263 264 265 266 267 267 268 267 267 267 267 265 264 264 265 266 266 267
269 269 268 267 267 267 267 267 267 267 267 266 266 266 267 268 268 268 267 266 265 265 264 264 264 263 263 263 263 263 262 262 262 263 263 263 263 263 265 263 263 262 262 262 263 263 263 263 263 262 262 262 263 262 262 261 264 267 266 266 266 265 266 267 266 265 265 263 263 263 263 265 266 267
269 268 267 267 267 267 266 266 265 265 265 265 265 265 265 265 266 266 265 265 264 264 264 264 263 263 263 263 263 262 261 261 261 261 261 261 263 262 263 262 262 262 261 261 261 261 261 261 262 263 263 263 263 263 263 263 264 265 266 265 265 264 265 265 265 265 264 263 262 262 263 264 265 267
268 267 265 266 266 266 266 265 265 265 264 264 264 264 264 264 263 263 263 263 263 263 263 263 263 263 263 262 262 261 261 261 261 261 261 261 261 261 262 261 261 260 260 260 260 260 260 260 261 261 263 265 266 266 266 265 263 264 264 264 265 264 263 264 263 263 262 262 264 262 262 263 264 266
267 266 265 265 264 265 264 264 264 264 263 263 263 263 263 262 263 262 262 263 263 262 262 262 262 262 262 261 261 261 260 260 260 261 260 261 260 260 261 260 259 259 260 259 260 260 260 259 260 259 259 261 262 263 264 268 266 264 262 261 263 263 262 262 262 262 262 262 263 263 261 261 262 264
266 265 264 264 264 264 263 263 263 263 263 263 263 263 262 262 261 261 262 262 262 262 262 261 261 261 260 260 260 260 260 260 260 260 259 259 259 260 260 260 259 259 259 260 260 259 260 258 259 259 258 259 260 259 261 265 265 266 263 261 261 262 261 261 261 261 262 263 262 262 262 261 261 263
264 264 263 263 262 262 262 262 262 262 262 262 261 261 261 261 260 260 261 261 260 260 260 260 259 259 260 260 260 259 259 259 259 259 259 259 259 259 259 259 259 259 259 259 259 259 260 259 258 258 258 257 257 258 258 261 261 262 266 263 260 260 261 260 260 260 261 262 262 262 263 261 262 263
263 262 262 262 261 261 261 261 261 261 261 260 260 260 260 259 259 260 260 260 260 259 259 259 259 259 259 259 260 260 259 259 259 258 258 258 258 258 258 258 258 259 259 258 260 260 259 258 258 257 257 256 256 257 257 256 256 260 262 264 262 260 260 261 260 260 260 260 261 262 262 264 265 268
262 262 261 261 261 261 260 261 260 260 260 260 260 260 259 259 259 259 259 259 259 259 259 258 258 258 258 258 258 258 258 257 257 257 257 257 257 257 257 258 257 257 258 258 258 259 259 258 258 257 256 256 257 258 257 257 257 258 259 262 265 264 262 262 260 260 259 261 261 260 260 261 261 263
260 260 260 260 260 260 260 260 260 260 259 259 259 259 259 259 259 259 259 258 258 258 257 257 257 257 257 257 258 259 258 257 257 257 256 256 256 256 255 256 257 257 257 256 258 258 258 258 257 257 256 256 257 257 257 257 257 259 260 261 263 265 265 265 262 261 260 261 261 260 259 259 260 261
259 258 258 259 259 259 259 258 258 258 258 258 258 258 258 258 258 257 257 256 257 257 257 257 257 256 256 257 257 257 257 257 257 256 256 256 256 256 255 256 256 256 256 256 257 257 258 258 257 257 257 257 257 256 255 256 256 257 258 259 260 263 264 265 265 266 263 262 261 259 260 260 261 259
258 257 257 257 257 258 258 258 258 258 258 258 258 258 257 257 257 256 257 257 257 257 256 256 256 256 256 256 256 257 256 256 256 255 255 255 255 256 256 256 255 255 255 255 257 257 257 257 257 257 257 257 256 256 255 255 256 256 257 258 258 260 260 264 265 265 266 266 266 265 263 261 259 257
257 256 256 256 256 256 256 257 257 257 257 257 257 257 257 257 256 257 257 256 256 256 256 256 256 256 255 255 255 256 256 256 256 255 255 255 255 255 255 255 255 254 255 255 256 256 257 257 257 257 256 255 256 255 255 255 255 256 256 257 257 258 258 260 261 263 264 264 265 265 266 267 267 267
256 256 256 256 256 256 256 256 256 256 256 256 257 257 256 256 255 256 256 256 255 255 255 255 255 255 255 255 256 255 255 255 255 255 255 255 255 255 255 254 254 254 255 255 254 255 256 256 256 257 256 256 256 255 255 255 255 255 255 256 256 257 258 259 258 258 259 260 262 264 265 267 268 268
Wind_Speed
6 7 9 8 7 5 4 5 5 4 4 7 13 12 12 10 8 7 7 9 8 8 6 4 2 2 2 3 2 2 3 4 4 4 4 5 6 10 12 13 11 8 6 6 6 6 6 6 6 7 8 9 10 10 11 12 12 13 14 15 16 17 17 17 17 17 17 18 18 18 19 19 20 20
6 6 5 5 6 5 6 7 6 6 7 6 7 9 9 11 14 11 11 7 8 7 7 3 4 5 4 4 3 3 3 5 3 4 5 5 5 11 12 12 12 14 11 6 7 6 6 6 6 6 8 9 10 11 11 12 13 13 14 15 16 17 17 16 17 17 17 18 18 19 19 20 20 20
5 5 6 5 5 5 7 7 7 7 8 8 7 5 2 4 3 8 6 6 3 5 7 4 3 6 6 4 4 4 4 3 4 4 5 6 5 8 11 11 10 10 11 13 8 7 6 6 6 6 7 9 11 11 12 12 13 14 15 16 16 16 16 17 16 17 17 18 18 19 19 19 20 20
3 4 6 6 6 5 4 4 6 5 5 5 5 4 3 1 1 4 5 5 6 2 4 5 5 6 6 5 5 5 4 4 4 4 5 5 3 5 6 10 9 9 9 9 8 8 8 8 8 8 9 11 12 13 13 13 14 14 15 15 15 16 16 16 16 17 17 17 18 18 19 19 20 20
4 4 5 6 5 4 5 5 5 6 6 6 4 4 5 4 3 5 5 6 8 3 3 5 5 6 6 5 4 5 5 5 4 4 4 4 4 4 5 6 9 8 8 9 9 9 10 10 11 12 12 12 13 13 13 13 14 14 14 14 14 15 16 16 16 16 16 17 17 18 18 19 19 20
3 3 6 7 4 4 5 3 4 4 3 3 5 6 5 4 5 4 4 4 5 6 5 5 5 5 5 4 4 5 5 5 4 5 4 3 3 3 4 4 5 8 7 8 10 10 11 11 12 12 13 12 12 12 12 12 13 13 13 13 13 14 15 15 15 15 15 16 16 17 18 19 20 20
3 4 5 5 2 1 2 2 1 2 5 6 6 4 4 5 5 5 5 8 5 9 6 6 6 5 5 4 4 3 3 3 4 5 4 4 3 3 3 4 4 6 7 8 9 10 11 11 12 12 12 12 11 11 11 11 12 12 12 12 12 14 14 15 15 15 15 16 17 17 18 19 20 21
3 4 3 3 3 2 4 3 1 0 0 2 2 4 5 4 4 4 6 7 9 7 9 7 7 6 5 3 4 4 4 4 3 4 4 4 4 4 4 4 3 3 5 7 8 10 11 11 11 12 12 12 11 10 10 10 10 11 11 11 12 13 14 15 15 15 15 16 17 18 18 19 20 21
3 3 3 2 2 2 5 3 2 1 2 1 4 3 2 3 3 3 4 5 6 9 9 8 4 6 5 4 5 5 5 4 4 3 4 3 4 4 4 3 2 1 2 2 5 7 9 10 11 11 12 11 11 10 9 9 9 10 11 11 12 14 15 15 16 16 16 17 17 18 19 19 20 21
2 2 2 1 1 3 5 5 3 2 2 2 3 4 4 5 6 7 6 7 7 9 7 8 7 5 5 5 4 4 4 6 5 5 4 3 2 3 3 3 1 1 1 1 1 2 5 8 10 10 11 11 10 9 8 8 8 9 11 12 13 15 15 16 16 17 17 18 18 19 19 20 20 21
2 2 1 1 2 2 3 2 4 4 3 2 3 4 5 5 6 5 6 7 8 8 8 5 6 7 5 6 5 4 3 4 5 7 6 4 3 2 2 2 1 1 0 2 2 2 3 3 4 7 9 10 8 8 6 7 8 10 12 13 15 16 16 17 17 17 18 18 19 19 20 20 21 21
2 2 2 1 1 2 2 2 1 3 4 4 3 3 4 5 6 6 6 6 7 7 7 7 8 6 7 6 4 5 5 5 4 4 5 7 6 4 3 3 3 3 2 1 1 2 3 3 4 6 5 9 7 6 4 5 8 11 13 15 17 17 17 17 17 18 18 19 19 20 21 21 21 22
1 2 2 2 2 2 3 4 3 2 2 2 5 5 5 6 6 6 5 7 7 6 7 7 6 7 6 6 8 7 7 9 7 5 2 4 4 4 3 3 4 4 4 2 1 2 4 3 4 4 3 5 5 3 4 4 8 13 14 16 18 18 17 18 18 18 19 19 20 20 21 21 22 23
2 2 2 3 5 5 5 6 6 5 4 5 3 2 5 6 5 5 7 6 6 8 8 8 9 8 7 8 8 8 5 4 4 4 4 5 5 4 3 3 3 5 4 3 2 3 3 3 3 4 3 3 4 4 3 6 8 11 14 16 17 17 17 18 18 19 19 20 20 21 21 22 23 23
1 2 2 2 3 4 5 6 7 7 7 7 7 7 6 5 3 8 7 5 7 8 7 7 7 7 8 7 5 5 5 4 4 4 4 4 5 5 5 3 3 5 5 3 1 2 3 3 4 4 4 4 4 4 4 9 10 11 13 16 17 17 18 18 19 19 19 19 20 20 21 22 23 24
0 1 2 2 1 2 3 5 6 8 10 9 10 11 10 10 9 8 0 8 7 6 7 7 5 5 6 6 5 5 5 5 4 3 3 3 4 3 2 2 2 4 6 4 2 2 3 4 4 4 4 4 4 3 5 7 8 9 12 16 17 17 18 18 19 19 18 19 19 20 21 22 24 24
2 2 2 2 2 2 4 4 6 7 8 11 12 12 12 13 13 12 12 11 5 3 6 8 7 6 8 8 6 5 5 5 6 5 4 3 3 3 5 4 4 4 6 3 2 1 3 4 4 4 3 4 4 4 2 5 7 7 12 15 16 16 17 18 18 18 18 19 20 20 22 24 24 26
3 4 4 4 3 2 2 3 5 6 7 6 7 7 7 7 10 12 13 12 12 9 4 5 8 6 5 6 6 5 4 5 5 5 5 4 4 5 6 6 6 4 5 4 3 0 2 5 4 5 5 6 6 4 5 5 3 6 11 15 15 16 17 18 18 18 18 19 19 21 22 24 26 26
4 5 5 5 5 4 3 2 3 6 6 7 7 8 8 8 8 8 7 6 6 7 7 8 8 8 8 7 6 5 3 4 4 3 5 5 6 8 8 6 5 5 6 7 3 1 3 4 4 5 7 8 7 4 3 3 2 5 11 13 15 15 17 18 17 19 18 19 19 20 22 23 25 27
2 3 5 6 5 6 5 5 5 5 6 8 9 10 9 9 10 10 10 13 13 10 9 8 8 8 8 8 6 5 5 5 5 6 5 6 6 6 4 4 4 4 4 7 5 2 3 3 4 6 7 7 7 6 4 5 5 3 11 13 14 15 15 17 18 19 19 18 20 20 21 23 25 27
2 2 4 5 5 6 6 9 11 8 6 8 9 10 10 10 10 11 11 17 20 20 20 20 20 18 17 15 14 12 9 4 2 4 4 4 5 4 4 3 4 4 4 5 6 3 2 4 5 7 7 8 8 6 4 3 3 5 10 14 13 14 16 17 19 19 19 19 19 20 21 22 25 29
2 2 3 5 6 7 8 13 13 11 7 8 9 10 12 11 9 8 7 7 12 21 21 21 19 18 17 17 17 16 14 12 5 2 3 3 3 3 3 4 4 4 4 5 6 3 3 4 5 6 8 7 4 4 4 3 3 7 9 11 12 13 15 17 19 19 18 18 20 19 21 22 24 17
4 5 5 5 6 7 10 15 14 13 9 8 9 10 11 11 10 8 8 8 8 8 8 8 8 9 10 9 9 11 16 14 11 7 4 2 2 3 3 4 4 4 3 6 8 2 3 5 5 6 6 3 5 3 2 3 6 6 6 6 7 12 14 18 18 17 19 19 18 19 20 20 20 14
6 6 6 7 9 11 14 15 15 12 11 10 9 8 8 11 11 9 9 8 8 8 7 8 7 8 7 7 7 7 8 8 9 8 6 6 4 4 4 3 2 2 2 5 7 3 2 3 4 6 2 4 4 2 5 6 8 7 6 6 7 10 13 14 13 16 17 17 19 19 19 19 20 13
8 8 7 7 12 15 15 14 14 13 12 11 9 8 8 8 12 12 9 9 10 9 9 8 7 6 6 6 6 6 7 7 6 7 8 7 7 5 4 3 4 5 5 5 6 3 2 3 3 4 3 3 6 7 5 6 7 7 5 5 7 8 10 9 9 11 13 16 17 18 18 21 24 17
8 9 8 7 12 17 16 15 15 14 13 11 6 8 14 20 20 11 9 8 7 7 6 6 6 6 5 5 5 6 6 6 6 6 6 6 7 7 6 4 3 3 3 5 7 3 2 2 3 3 4 4 6 7 9 7 5 3 4 5 4 7 8 10 11 11 10 11 11 13 18 25 23 22
10 8 8 8 14 17 16 15 16 15 15 9 9 19 21 20 19 13 8 7 7 7 6 6 6 6 5 5 4 5 5 5 5 5 5 6 6 7 7 8 7 5 4 4 4 4 3 1 2 3 4 5 7 8 7 7 8 7 6 4 6 8 6 8 9 10 12 12 12 20 20 22 22 22
9 10 10 11 19 17 16 16 15 15 12 11 19 20 20 18 13 8 8 7 7 7 7 7 6 6 5 5 5 5 5 4 5 5 5 6 7 6 6 7 7 7 6 5 5 5 4 2 2 3 4 5 6 7 9 7 7 8 11 10 6 4 7 8 7 9 10 11 11 12 13 15 15 15
8 11 15 19 20 18 17 17 16 12 15 21 21 21 18 14 8 7 6 7 6 7 6 6 6 6 5 5 6 6 5 5 5 5 5 6 6 6 7 7 6 6 5 5 5 5 4 3 3 4 3 4 5 6 7 9 9 9 9 12 11 9 9 5 8 9 9 10 11 13 12 13 15 14
12 16 18 21 21 18 15 13 10 9 12 18 20 18 14 8 7 6 7 6 7 7 6 6 6 6 6 5 5 5 5 5 5 4 4 4 4 3 3 4 4 5 5 5 5 5 5 4 4 4 5 5 5 7 7 8 8 7 8 8 11 13 5 9 11 10 11 12 12 13 13 12 14 14
5 8 9 10 14 14 16 14 13 12 14 12 9 7 6 6 6 6 5 6 7 7 7 7 6 6 6 6 6 5 5 5 5 4 3 4 3 3 2 3 3 3 3 3 3 4 4 4 4 5 4 6 5 7 7 6 8 8 7 7 8 9 13 14 12 12 12 13 14 13 12 11 13 15
6 7 10 11 7 7 8 7 6 5 4 5 5 5 6 6 7 8 11 10 8 7 7 7 7 6 6 6 5 5 5 5 4 4 3 3 3 3 1 2 3 2 2 1 1 1 1 3 4 4 5 6 6 6 4 5 7 7 8 8 9 10 9 10 12 13 13 14 14 14 13 12 14 14
10 10 7 6 6 6 7 6 6 6 5 5 5 6 6 6 6 5 5 6 6 6 7 7 7 7 6 6 5 5 6 5 4 3 4 4 4 3 4 4 2 3 3 3 3 4 4 5 5 6 6 7 8 8 5 4 4 4 6 9 9 11 10 9 10 11 12 13 14 14 15 13 13 14
10 10 8 6 7 7 6 6 6 7 7 7 6 5 5 5 6 6 6 6 7 6 6 6 7 6 6 6 5 5 6 4 4 4 4 3 3 3 3 3 3 2 2 3 4 5 6 6 6 5 7 9 8 8 6 4 5 5 6 8 9 11 12 11 11 11 10 10 13 15 15 16 16 15
9 8 6 6 6 6 5 5 5 6 7 7 8 7 5 5 6 6 6 6 6 6 7 6 6 5 5 5 5 5 5 5 4 4 3 4 4 4 3 3 2 3 3 4 5 6 7 8 9 9 5 3 2 2 10 7 2 6 7 7 8 10 13 12 12 12 11 11 9 12 14 14 16 16
7 4 6 6 6 6 6 4 3 4 6 7 7 8 7 6 5 6 6 5 6 6 6 6 5 5 5 5 5 5 5 4 4 4 4 4 3 3 3 3 2 2 3 3 4 5 5 6 6 7 7 7 6 4 1 7 4 3 7 9 9 9 10 12 13 11 10 9 10 13 14 16 16 18
7 4 5 6 5 6 6 5 4 4 6 7 7 6 7 7 6 6 6 6 6 6 5 6 6 5 5 5 5 4 3 4 5 4 4 3 2 2 2 2 2 2 2 3 3 4 4 5 5 6 6 7 6 6 5 3 3 5 6 7 11 10 9 11 12 12 9 9 12 11 14 16 18 17
6 6 6 6 6 5 5 4 4 5 6 6 7 7 7 7 7 7 6 6 6 6 5 6 5 5 5 4 5 5 5 4 4 4 3 2 2 3 3 2 2 3 3 3 2 3 3 3 4 4 4 5 7 8 10 5 2 4 2 3 11 13 10 10 11 12 13 11 10 12 14 16 17 16
6 6 6 6 6 6 5 4 4 6 6 6 6 7 7 7 6 6 6 5 5 6 6 5 5 4 5 4 4 4 5 4 4 3 3 3 3 2 2 2 2 3 3 3 3 2 2 3 3 3 4 4 5 7 8 10 10 6 7 14 12 12 11 10 12 12 13 15 14 14 14 14 18 30
5 6 6 7 6 5 4 4 4 5 6 7 7 6 7 7 6 6 6 5 5 5 5 5 5 5 5 4 4 5 6 5 4 3 3 3 3 3 3 3 2 3 3 3 3 3 3 3 3 4 5 6 7 8 10 12 13 12 11 11 16 12 11 11 14 15 15 13 14 15 17 17 16 16
6 6 5 6 6 5 5 4 5 5 6 7 7 7 6 6 6 5 5 5 4 5 5 5 5 5 5 4 4 4 5 4 4 4 3 3 3 3 3 1 2 2 3 4 3 4 4 4 5 9 9 8 8 9 8 8 9 10 9 8 6 13 17 15 13 14 15 16 15 16 16 16 17 18
6 6 6 6 6 5 4 5 5 6 7 6 6 7 6 6 6 8 7 6 6 6 5 5 5 5 4 3 3 3 4 4 4 4 2 2 2 2 1 1 2 2 2 3 4 5 5 5 6 6 6 5 6 5 6 7 10 12 12 12 10 10 13 18 20 20 16 15 14 14 15 15 11 16
6 6 6 5 5 5 5 5 5 6 6 6 6 6 6 6 6 5 5 5 4 4 5 4 4 4 4 4 3 3 4 4 4 4 3 3 3 2 2 2 2 2 2 4 5 5 6 6 5 5 5 4 4 3 7 9 9 10 12 13 13 13 13 17 16 19 20 21 20 17 15 14 14 13
6 6 6 5 5 5 5 5 5 5 5 5 5 5 5 6 6 5 4 4 4 4 4 4 4 4 4 4 4 4 4 4 3 3 3 3 2 2 1 1 2 2 3 4 5 5 5 5 5 4 5 5 4 5 7 9 9 8 10 12 13 12 14 15 15 16 13 12 15 18 22 23 22 26
6 6 6 5 5 5 5 5 5 5 5 5 5 5 5 5 5 5 4 4 4 4 4 4 4 4 4 3 3 4 4 4 3 3 2 2 1 1 1 1 2 2 3 3 4 5 5 5 5 4 4 5 5 6 7 7 10 10 11 11 13 12 12 12 15 17 17 14 6 12 19 21 25 28
Wind_Direction
238 224 206 206 210 205 195 209 227 248 282 187 170 169 165 164 147 174 207 214 195 195 180 157 159 121 136 116 118 98 79 29 9 65 61 50 45 24 33 34 42 61 105 104 109 113 111 116 112 106 91 80 75 70 64 58 54 49 45 40 36 32 28 24 20 15 11 7 3 360 356 353 350 347
240 238 221 207 203 189 191 206 196 208 204 213 216 196 188 173 172 176 187 197 178 159 173 165 147 158 151 143 119 114 105 43 47 72 73 64 52 37 41 45 41 33 38 74 111 106 110 108 108 100 82 72 68 65 61 56 51 47 43 39 34 30 26 22 17 13 9 4 0 356 353 350 347 344
242 219 216 211 214 192 200 196 192 202 200 205 204 230 302 262 247 179 165 130 158 137 164 162 134 147 149 140 129 118 107 71 76 92 91 91 50 64 50 53 57 49 45 40 68 95 100 100 98 91 78 68 63 59 56 52 48 45 41 36 32 27 23 19 14 11 6 2 357 353 349 346 344 341
274 241 213 197 199 203 212 209 208 208 226 199 195 194 180 128 41 147 142 129 141 111 145 136 144 141 140 144 137 125 111 93 84 104 106 108 147 100 85 57 68 91 93 94 95 92 86 85 82 78 67 57 55 51 49 48 45 41 37 33 28 24 20 15 11 7 3 358 353 348 345 342 340 338
241 242 229 227 221 194 198 203 184 170 183 202 189 181 182 164 146 143 122 124 133 89 108 129 143 145 139 134 146 140 138 134 120 117 113 123 113 115 108 88 53 62 78 85 86 84 77 68 63 59 55 54 51 49 46 44 41 37 33 29 25 20 15 12 7 2 357 352 347 343 341 338 336 334
268 259 230 226 228 211 213 184 198 171 161 196 172 180 175 164 153 144 116 112 130 144 138 136 135 146 161 129 148 155 146 139 136 126 119 97 95 99 114 104 74 45 68 75 77 76 72 68 64 59 54 52 50 47 45 42 39 34 29 25 20 15 11 7 2 357 351 345 341 338 336 334 332 330
253 233 230 213 179 167 144 193 214 151 172 175 166 154 183 167 154 153 133 134 128 145 152 151 149 156 156 147 151 124 105 113 132 127 117 107 89 83 85 102 98 43 54 62 67 71 70 69 65 61 56 52 48 46 43 40 35 30 24 19 15 10 6 1 356 351 345 340 337 335 332 330 329 327
246 228 207 200 183 165 139 167 196 330 20 162 151 156 162 157 150 146 149 146 135 150 142 169 162 157 141 120 118 117 126 140 128 117 106 97 88 84 76 75 87 48 44 57 63 64 66 66 64 60 55 49 47 44 40 34 30 23 17 13 9 5 0 356 350 345 340 336 333 332 329 327 326 325
292 277 253 198 180 178 152 150 170 179 180 146 139 137 138 110 110 99 116 114 123 140 148 137 127 134 122 127 141 156 146 135 117 112 114 104 101 91 86 83 65 23 343 35 51 64 64 63 62 60 52 47 43 40 37 30 23 16 10 8 4 0 355 350 345 340 337 334 331 329 327 325 324 323
321 310 301 292 239 205 192 182 143 124 160 146 141 131 114 96 90 93 95 101 108 128 131 140 138 146 140 139 151 168 167 150 140 126 113 102 99 122 110 84 57 5 358 355 342 59 64 63 68 60 54 44 38 36 31 22 14 10 6 6 1 357 351 346 342 337 334 331 329 327 325 323 322 322
348 346 321 298 310 293 266 211 180 162 165 173 149 141 132 131 124 117 127 129 132 128 128 121 131 135 147 151 154 169 173 162 160 152 148 142 134 94 92 93 79 35 97 144 122 52 42 35 59 70 61 45 35 27 23 14 6 4 5 4 360 354 349 343 339 335 332 330 327 325 324 323 322 322
5 10 9 3 352 324 304 274 303 190 168 170 148 132 128 136 130 130 131 130 132 132 137 146 147 148 146 145 130 133 163 163 169 183 175 161 158 141 83 45 28 353 358 3 106 186 203 194 145 146 115 54 27 19 9 19 1 4 5 4 358 352 345 340 336 333 331 329 327 326 325 324 323 321
24 28 32 22 5 32 46 47 41 19 336 193 156 156 155 148 135 129 138 144 138 139 139 138 142 144 154 159 153 165 180 187 179 156 155 130 129 138 130 94 48 13 345 331 86 50 18 5 22 24 26 35 11 36 353 12 9 2 3 2 354 347 340 336 334 333 331 330 329 328 326 325 324 323
33 42 49 52 65 77 77 76 75 66 53 23 14 147 157 148 136 140 145 149 155 153 151 156 155 157 166 167 171 173 166 102 97 131 158 149 148 139 127 115 62 18 360 342 46 74 42 7 5 14 16 30 21 4 6 17 352 353 360 357 348 341 337 335 335 334 333 332 330 329 327 326 324 322
10 59 65 89 86 86 85 84 84 77 67 67 72 57 42 24 128 155 152 168 167 156 153 149 157 162 155 153 144 136 132 141 148 148 152 147 159 174 178 165 135 44 10 337 325 70 53 17 7 358 3 10 7 356 6 353 349 357 358 350 343 337 335 335 335 335 334 333 330 329 326 325 323 322
221 90 76 66 58 74 111 117 98 87 78 73 72 64 60 59 51 27 243 156 155 156 143 150 151 135 140 136 137 141 142 146 132 132 136 145 161 167 146 94 101 19 358 338 340 83 60 24 360 349 354 360 354 342 330 341 348 356 355 347 340 335 334 335 335 334 333 331 329 328 326 324 323 322
185 170 141 103 72 82 94 109 112 110 95 78 74 68 63 54 53 60 55 34 26 125 127 134 133 142 140 138 146 140 137 141 134 140 127 126 109 100 96 92 95 20 356 341 357 29 31 22 348 340 342 353 344 324 334 354 345 358 354 345 337 332 332 333 333 332 332 331 329 328 327 324 324 323
202 179 169 154 137 108 95 99 117 116 111 103 85 71 67 66 54 56 51 52 48 38 63 104 119 111 120 124 116 104 133 146 147 146 132 134 121 102 96 97 92 61 24 28 331 32 74 15 348 337 338 343 331 316 314 320 318 348 355 345 334 330 331 333 331 331 329 329 329 326 326 325 324 323
215 199 182 170 159 141 123 102 114 123 118 105 96 87 77 68 61 51 44 46 63 70 64 71 81 82 79 90 100 103 83 79 59 76 102 105 106 108 113 106 104 72 35 14 338 81 34 4 341 337 335 328 320 309 288 242 212 344 350 345 327 325 326 328 329 325 325 325 326 326 324 324 322 322
188 198 194 182 156 145 142 122 104 115 122 113 109 102 94 88 78 69 70 76 79 82 84 83 86 86 87 91 95 101 106 101 98 89 99 105 125 134 138 119 116 83 48 22 20 7 354 6 5 324 326 320 311 308 291 163 174 316 340 336 318 314 321 323 324 321 320 321 322 324 324 324 324 321
200 191 187 173 152 147 144 146 139 130 125 116 114 112 107 101 96 92 87 87 90 93 94 95 94 92 90 87 85 82 77 79 118 140 128 144 157 140 132 135 126 88 70 22 15 337 329 17 14 328 323 321 301 295 284 257 207 306 333 318 304 306 315 319 318 315 314 316 319 322 324 325 324 320
183 193 188 174 161 156 154 154 148 144 136 127 126 123 119 113 101 94 92 84 82 84 86 87 87 84 83 83 76 70 64 49 15 193 139 127 154 149 134 130 114 117 77 33 350 340 347 5 6 341 318 303 274 255 270 273 279 305 315 299 295 302 309 310 309 307 307 312 317 322 326 326 325 320
179 189 187 188 180 167 162 160 157 152 145 131 138 136 126 123 124 128 124 111 107 103 98 89 86 77 71 70 69 66 62 54 46 47 52 22 114 115 106 116 135 130 105 41 353 18 338 12 353 2 341 341 310 263 258 298 294 302 300 294 300 304 306 303 299 302 307 314 318 322 325 326 327 321
188 189 190 189 183 169 167 165 162 156 149 141 139 138 133 134 136 144 132 129 123 115 105 99 89 85 80 79 75 70 64 58 51 50 41 36 46 84 97 80 57 81 74 36 6 36 335 358 356 355 22 315 313 336 320 287 291 290 283 291 305 307 310 303 304 310 310 317 323 324 324 323 327 323
190 185 189 188 185 178 172 167 163 157 149 138 134 139 141 139 138 134 126 124 120 114 113 106 101 94 86 76 71 66 62 57 51 51 47 44 41 58 84 96 90 94 77 47 20 28 39 5 358 339 323 287 277 295 282 288 279 274 263 299 301 315 313 307 313 314 319 322 324 323 322 323 322 322
195 187 181 183 183 181 177 166 161 154 148 139 122 128 128 131 132 127 125 125 118 106 103 102 96 94 88 81 71 68 67 61 55 54 54 53 54 50 47 52 84 114 92 49 34 34 37 24 9 341 311 310 293 297 304 298 286 280 311 296 292 307 299 313 320 318 325 326 322 326 323 321 319 320
194 184 178 173 176 178 174 164 159 153 143 133 133 134 134 133 128 125 119 113 112 109 108 102 95 93 93 92 88 74 73 65 60 63 60 64 72 69 63 50 48 67 58 47 29 31 47 48 336 340 315 311 303 301 284 302 314 319 301 296 309 295 293 316 312 322 325 325 322 323 323 318 317 317
183 181 174 168 168 170 168 158 151 148 145 140 141 137 134 126 119 115 120 117 118 115 110 106 105 102 99 97 92 80 72 71 66 66 64 64 66 70 77 72 61 54 49 41 37 27 32 23 337 316 315 310 304 303 305 295 289 309 315 314 303 284 320 307 310 322 321 321 323 327 324 323 321 320
180 180 169 161 161 160 158 156 151 144 142 144 140 136 127 118 122 121 117 120 120 108 107 107 104 100 92 89 89 93 93 89 81 76 71 66 63 70 75 72 68 57 51 34 34 25 20 5 340 320 316 293 278 282 291 292 308 305 326 325 323 326 316 306 331 326 326 325 324 324 318 314 310 308
172 171 162 157 154 150 147 143 140 141 140 134 132 127 123 123 120 129 129 124 118 116 118 118 116 113 108 97 93 89 87 77 68 70 78 95 80 85 94 97 79 72 56 43 32 23 17 359 339 319 303 285 274 278 283 300 300 306 317 317 306 303 290 331 327 331 333 332 326 317 308 304 296 295
119 102 97 92 88 84 88 88 88 97 112 115 114 113 109 109 115 123 133 130 119 120 119 116 110 108 104 102 93 80 77 72 59 58 54 77 71 77 46 79 83 74 71 70 39 26 15 356 333 317 295 289 283 265 276 288 290 302 308 311 320 318 314 322 323 330 334 328 322 310 306 303 299 290
104 97 93 80 70 74 74 81 77 67 64 89 104 101 99 96 87 80 80 85 97 101 108 106 108 105 105 96 91 86 78 73 60 47 51 65 68 64 83 78 54 32 17 12 22 344 306 325 325 306 284 270 274 283 295 280 280 289 299 305 304 294 298 310 318 324 332 327 318 315 311 308 302 296
120 119 102 101 92 95 106 114 120 120 107 80 67 65 93 106 110 115 114 106 102 109 113 114 115 111 105 99 92 93 85 72 64 35 62 42 67 43 60 75 57 21 358 345 345 338 326 313 281 264 263 265 254 255 273 290 278 287 304 309 310 303 307 313 316 318 328 327 319 313 309 305 297 291
132 139 129 120 125 124 127 131 138 138 133 124 110 93 77 90 96 98 97 99 109 108 105 108 107 109 108 103 102 93 95 85 72 51 62 54 48 71 62 73 55 33 359 332 343 341 335 324 313 284 244 236 244 231 211 243 287 313 311 306 305 305 306 314 315 322 325 319 311 309 310 308 302 294
134 140 122 128 125 128 133 144 149 146 133 127 121 117 105 87 89 92 95 100 104 103 103 97 97 102 102 105 102 102 99 100 93 81 60 65 52 62 57 65 42 21 5 354 353 351 345 343 343 340 334 319 299 211 187 200 339 316 316 304 308 308 308 315 316 318 316 308 305 302 303 297 294 295
142 108 123 124 130 134 131 136 144 141 127 121 120 123 116 103 93 95 99 106 106 107 104 105 102 99 98 98 100 100 100 102 93 80 66 56 59 62 69 63 52 18 13 6 355 350 349 346 350 350 345 335 337 323 339 179 117 332 319 305 307 306 305 307 305 303 303 307 313 313 303 301 295 298
132 110 109 119 124 129 135 144 149 133 114 116 113 111 113 111 102 89 90 93 89 85 91 100 98 100 99 101 99 96 97 95 92 83 77 70 60 59 68 63 46 24 22 8 3 345 348 350 350 353 342 333 335 317 299 182 174 329 293 293 302 300 306 304 305 305 303 306 307 307 302 297 293 292
120 124 117 115 121 120 122 132 134 121 110 102 103 97 93 99 103 101 100 92 93 97 92 91 95 97 103 108 107 101 91 85 90 85 82 73 69 51 51 39 25 16 3 340 347 345 346 347 352 353 345 335 321 322 320 310 277 282 237 325 298 296 304 300 305 312 313 311 298 300 302 295 291 290
114 123 126 126 121 122 129 137 128 117 108 105 103 110 110 106 105 105 99 95 97 100 99 96 93 94 96 91 93 105 107 104 94 92 89 79 67 70 42 38 20 5 351 342 346 344 352 352 354 348 335 318 307 305 307 306 292 279 275 274 273 288 294 306 305 308 311 313 308 307 291 274 282 285
92 92 104 116 118 121 119 121 113 112 111 108 107 105 109 111 110 108 104 105 102 97 95 95 101 99 89 91 95 91 87 87 92 89 89 88 76 65 54 25 21 344 343 332 338 342 354 349 352 336 318 295 287 287 291 281 278 271 263 257 244 251 283 306 307 311 305 304 307 308 305 310 310 307
108 106 100 102 104 108 116 113 113 106 99 95 92 89 89 99 100 99 104 106 110 106 104 100 96 94 96 92 91 104 106 102 102 99 96 88 79 73 46 15 18 355 346 326 327 326 337 346 327 304 289 281 280 282 276 273 289 305 307 296 274 277 280 283 290 295 292 297 301 301 301 305 309 310
91 95 94 93 101 104 107 107 103 101 99 100 101 100 96 88 86 95 94 89 87 91 100 102 102 97 94 93 91 91 98 103 102 93 84 79 88 90 90 44 31 356 345 321 323 312 312 318 304 296 289 283 294 305 300 303 303 307 306 306 303 294 291 291 287 287 285 287 293 296 298 300 305 304
83 93 93 86 83 92 95 93 88 88 95 96 96 99 101 103 109 106 105 105 102 96 97 97 99 102 104 99 89 92 101 98 96 96 95 81 69 46 37 28 12 334 300 290 291 294 297 301 301 299 296 288 291 297 293 301 298 294 301 311 311 317 304 299 291 289 286 280 272 269 270 281 299 295
79 82 85 86 89 84 81 81 83 79 87 92 99 101 103 112 107 101 101 105 105 105 105 107 110 109 109 106 105 92 86 91 88 85 76 71 61 49 21 348 318 303 297 291 297 298 296 296 295 291 298 300 305 298 295 299 296 297 299 298 301 308 310 316 316 309 292 262 261 266 269 272 268 271
82 78 85 80 80 79 77 80 85 86 89 93 94 93 94 88 90 91 87 92 98 108 113 116 111 106 104 107 103 95 87 82 82 77 77 72 63 54 2 314 313 300 289 299 301 296 303 303 293 287 281 288 291 284 280 279 285 300 297 299 301 307 309 316 321 320 318 314 282 283 286 288 290 291